[[{"header":{"parameterUnit":"m.s-1","parameterCategory":1,"la1":30.2991,"la2":30.254,"lo1":-89.0895,"lo2":-89.0444,"dy":0.0017,"dx":0.0017,"nx":28,"ny":28,"refTime":"2025-03-16T21:00:00:Z","depth":0,"parameterNumber":2,"parameterNumberName":"U-component_of_WINDS"},"data":[0,0,0,0,0,0,0,0,0,0,0,0,0,0,0,0,0,0,0,0,0,0,0,0,0,0,0,0,0,0,0,0,0,0,0,0,0,0,0,0,0,0,0,0,0,0,0,0,0,0,0,0,0,0,0,0,0,0,0.8461,0.8461,0,0.8512,0.8513,0.8513,0.8515,0.8515,0.8514,0.8514,0.8568,0.857,0.8572,0,0,0,0,0,0,0,0,0,0,0,0,0,0.8367,0.8368,0.846,0.8461,0.8462,0.8512,0.8513,0.8514,0.8516,0.8515,0.8514,0.8513,0.8568,0.857,0.8572,0,0,0,0,0,0,0,0,0,0,0,0,0,0.8412,0.8369,0.846,0.8469,0.847,0.8512,0.8513,0.8514,0.8516,0.8515,0.8514,0.8513,0.8567,0.857,0.8573,0.861,0,0,0.8582,0.8583,0,0,0,0,0,0,0,0,0.8409,0.8415,0.8467,0.8468,0.847,0.8506,0.85,0.8546,0.8516,0.8498,0.8514,0.8512,0.8549,0.8553,0.8565,0.8613,0.8615,0.8582,0.8584,0.8586,0.8586,0,0,0,0,0,0,0,0.8406,0.8413,0.8481,0.8468,0.8469,0.8471,0.8476,0.8509,0.8528,0.85,0.85,0.8506,0.8549,0.8562,0.8566,0.8616,0.8582,0.8585,0.8587,0.8588,0.87,0.8701,0,0,0,0,0,0,0.8401,0.841,0.8479,0.8483,0.8437,0.8473,0.8479,0.8496,0.8528,0.8532,0.8507,0.8506,0.8557,0.8563,0.8568,0.8615,0.8585,0.8588,0.859,0.8699,0.87,0.8701,0,0,0,0,0,0,0.8399,0.8407,0.8477,0.8447,0.8456,0.8476,0.8494,0.8497,0.851,0.8533,0.8537,0.8516,0.8557,0.8564,0.86,0.8617,0.859,0.8592,0.8697,0.8699,0.8701,0.8709,0,0,0,0,0,0,0.8396,0.8406,0.842,0.8447,0.8457,0.8507,0.8495,0.8499,0.8515,0.8514,0.8543,0.8546,0.8556,0.8596,0.8603,0.8621,0.8595,0.8696,0.8698,0.87,0.8708,0.8711,0.8714,0,0,0,0,0,0.8393,0.842,0.842,0.8429,0.8474,0.8508,0.8514,0.8525,0.8516,0.8531,0.8546,0.8546,0.8614,0.8599,0.8608,0.8627,0.8695,0.8698,0.87,0.8706,0.8711,0.8714,0,0,0,0,0,0,0.8395,0.8424,0.8424,0.8461,0.8482,0.8509,0.8527,0.8529,0.8553,0.8552,0.8564,0.8571,0.8607,0.8621,0.8603,0.8666,0.8654,0.8658,0.8656,0.866,0.8663,0.8659,0.8597,0,0,0,0,0,0.8399,0.8424,0.8448,0.8478,0.8489,0.8506,0.8521,0.8528,0.855,0.8559,0.8577,0.86,0.8627,0.8644,0.867,0.871,0.8717,0.8728,0.8731,0.8733,0.8737,0.8761,0.8766,0.871,0.871,0.871,0,0,0.8409,0.8428,0.8443,0.8479,0.8496,0.8522,0.8514,0.8541,0.8561,0.8564,0.8599,0.8613,0.864,0.8679,0.8697,0.8691,0.8754,0.8737,0.8738,0.8741,0.8764,0.877,0.8774,0.8711,0.8711,0.8711,0,0,0.8441,0.8457,0.8484,0.8502,0.8528,0.854,0.8547,0.8573,0.8583,0.8619,0.8622,0.8646,0.8692,0.8711,0.8727,0.8768,0.8769,0.8776,0.8793,0.8816,0.8821,0.8825,0.884,0.8846,0.878,0.878,0.878,0,0.845,0.8488,0.8499,0.8526,0.8543,0.8547,0.8576,0.8593,0.8626,0.8638,0.8632,0.869,0.8708,0.8752,0.8762,0.8775,0.8784,0.8772,0.8819,0.8823,0.8827,0.8842,0.8848,0.878,0.878,0.878,0.878,0,0.8499,0.8526,0.8545,0.8577,0.8596,0.8624,0.864,0.8659,0.8664,0.8677,0.8714,0.8736,0.8768,0.8779,0.8784,0.8824,0.882,0.8816,0.8804,0.8833,0.8848,0.8853,0.8781,0.8781,0.8781,0.8781,0,0,0.8531,0.857,0.8577,0.8593,0.8623,0.8644,0.8674,0.8704,0.872,0.8744,0.8769,0.8809,0.8806,0.8824,0.8832,0.8852,0.8885,0.8846,0.8847,0.8853,0.8933,0.8936,0.8942,0.8886,0.8887,0.8888,0.8931,0,0.8567,0.8618,0.8629,0.8674,0.87,0.8705,0.8731,0.8753,0.8766,0.8791,0.8807,0.8835,0.8828,0.8839,0.886,0.8877,0.8901,0.8874,0.8912,0.8913,0.8905,0.895,0.8953,0.8992,0.8937,0.8937,0.8938,0,0.8614,0.8639,0.8686,0.8714,0.8726,0.8749,0.8778,0.8802,0.8828,0.8836,0.8857,0.8863,0.8896,0.8883,0.8928,0.8909,0.8926,0.8937,0.8939,0.8943,0.8927,0.8956,0.9004,0.901,0.8947,0.8946,0.8946,0,0.8634,0.868,0.8714,0.8727,0.8761,0.8777,0.8792,0.8817,0.8835,0.8862,0.8874,0.8904,0.8921,0.8944,0.8959,0.8948,0.9005,0.8992,0.9014,0.9013,0.9025,0.9024,0.9077,0.9035,0.9035,0.9035,0.9035,0,0.8672,0.8701,0.8724,0.8745,0.8778,0.8792,0.8825,0.884,0.8863,0.8888,0.8895,0.8919,0.8937,0.8964,0.8976,0.9013,0.902,0.9029,0.9032,0.9029,0.9028,0.9039,0.9037,0.9036,0.9036,0.9036,0.9035,0,0.87,0.8716,0.8755,0.8784,0.8792,0.8815,0.8841,0.8863,0.8877,0.8909,0.8918,0.894,0.8973,0.899,0.903,0.9038,0.908,0.9081,0.9071,0.9073,0.9094,0.9092,0.9157,0.9166,0.9117,0.9117,0.9118,0,0.8723,0.8746,0.8778,0.8795,0.8811,0.8838,0.8857,0.8872,0.8892,0.8924,0.8943,0.8975,0.9002,0.9054,0.9074,0.9106,0.9108,0.9129,0.9113,0.911,0.911,0.9109,0.9112,0.9132,0.9132,0.9133,0.9133,0,0.8764,0.8771,0.8797,0.8827,0.8849,0.8874,0.8898,0.8912,0.8931,0.8953,0.8986,0.9007,0.9049,0.9082,0.9116,0.9132,0.9137,0.9138,0.9145,0.9142,0.9135,0.914,0.9079,0.9136,0.9136,0.9136,0.9136,0.9135,0.8791,0.8811,0.8838,0.8867,0.8887,0.891,0.8932,0.895,0.8977,0.9012,0.902,0.9055,0.9083,0.9128,0.9146,0.9175,0.9171,0.9181,0.9183,0.9186,0.9187,0.9131,0.9181,0.9181,0.9181,0.9181,0.9181,0,0.8832,0.8849,0.8876,0.891,0.8934,0.8936,0.8963,0.8983,0.9014,0.9039,0.9066,0.9105,0.9138,0.9162,0.9195,0.9214,0.9217,0.9222,0.9221,0.9225,0.9188,0.9179,0.9219,0.9219,0.9219,0.9219,0.9219,0.9219,0.8856,0.8892,0.8903,0.8949,0.8967,0.9001,0.9017,0.9039,0.9059,0.9102,0.9129,0.9144,0.917,0.9206,0.9236,0.9243,0.9255,0.926,0.9267,0.9232,0.9228,0.9224,0.9216,0.9263,0.9263,0.9302,0.9303,0.9303]},{"header":{"parameterUnit":"m.s-1","parameterCategory":1,"la1":30.2991,"la2":30.254,"lo1":-89.0895,"lo2":-89.0444,"dy":0.0017,"dx":0.0017,"nx":28,"ny":28,"refTime":"2025-03-16T21:00:00:Z","depth":0,"parameterNumber":3,"parameterNumberName":"V-component_of_WINDS"},"data":[0,0,0,0,0,0,0,0,0,0,0,0,0,0,0,0,0,0,0,0,0,0,0,0,0,0,0,0,0,0,0,0,0,0,0,0,0,0,0,0,0,0,0,0,0,0,0,0,0,0,0,0,0,0,0,0,0,0,-1.9177,-1.9179,0,-1.932,-1.9322,-1.9324,-1.9396,-1.9396,-1.9396,-1.9396,-1.9543,-1.9546,-1.955,0,0,0,0,0,0,0,0,0,0,0,0,0,-1.8968,-1.8971,-1.9177,-1.9179,-1.9181,-1.932,-1.9322,-1.9324,-1.9396,-1.9396,-1.9396,-1.9396,-1.9541,-1.9546,-1.9551,0,0,0,0,0,0,0,0,0,0,0,0,0,-1.9079,-1.8972,-1.9177,-1.9233,-1.924,-1.932,-1.9322,-1.9325,-1.9395,-1.9396,-1.9396,-1.9396,-1.954,-1.9545,-1.9551,-1.9586,0,0,-1.9569,-1.9571,0,0,0,0,0,0,0,0,-1.9073,-1.9087,-1.9223,-1.923,-1.9237,-1.934,-1.9302,-1.9412,-1.9395,-1.9336,-1.9396,-1.9396,-1.9475,-1.9486,-1.9513,-1.9593,-1.9599,-1.9569,-1.9573,-1.9576,-1.9577,0,0,0,0,0,0,0,-1.9065,-1.9081,-1.9234,-1.9225,-1.9234,-1.9252,-1.9268,-1.9323,-1.9404,-1.9342,-1.9347,-1.9363,-1.9479,-1.9507,-1.9517,-1.9602,-1.9569,-1.9574,-1.9578,-1.958,-1.9719,-1.9719,0,0,0,0,0,0,-1.9048,-1.9074,-1.9229,-1.9238,-1.9153,-1.9256,-1.9273,-1.9307,-1.9403,-1.9418,-1.9363,-1.9366,-1.9497,-1.951,-1.9522,-1.9571,-1.9575,-1.9581,-1.9584,-1.9719,-1.9719,-1.9719,0,0,0,0,0,0,-1.9043,-1.9061,-1.9224,-1.9158,-1.918,-1.9259,-1.9296,-1.931,-1.9338,-1.9419,-1.9434,-1.9377,-1.9498,-1.9514,-1.957,-1.9577,-1.9584,-1.9589,-1.9718,-1.9719,-1.9719,-1.9666,0,0,0,0,0,0,-1.9037,-1.9059,-1.9073,-1.9158,-1.9183,-1.9268,-1.9297,-1.9313,-1.9348,-1.9353,-1.9437,-1.945,-1.9499,-1.9561,-1.9576,-1.9585,-1.9593,-1.9718,-1.9719,-1.9719,-1.9668,-1.9665,-1.9662,0,0,0,0,0,-1.9029,-1.9052,-1.9073,-1.9091,-1.9202,-1.9268,-1.9283,-1.9338,-1.9348,-1.9363,-1.9415,-1.9448,-1.9574,-1.9566,-1.9583,-1.9594,-1.9718,-1.9719,-1.9719,-1.9669,-1.9665,-1.9662,0,0,0,0,0,0,-1.8966,-1.9064,-1.9088,-1.9139,-1.9195,-1.928,-1.93,-1.9333,-1.9387,-1.9389,-1.9456,-1.9474,-1.9524,-1.9565,-1.9555,-1.9634,-1.9649,-1.9653,-1.9605,-1.9602,-1.96,-1.9589,-1.9598,0,0,0,0,0,-1.8958,-1.9003,-1.9087,-1.9124,-1.915,-1.922,-1.9251,-1.929,-1.935,-1.9374,-1.943,-1.9488,-1.9541,-1.9574,-1.9627,-1.9674,-1.9694,-1.969,-1.9688,-1.9685,-1.9687,-1.9717,-1.9716,-1.9721,-1.9721,-1.972,0,0,-1.8941,-1.9001,-1.9025,-1.9112,-1.916,-1.9206,-1.924,-1.9287,-1.9322,-1.9381,-1.9437,-1.9481,-1.955,-1.9601,-1.9627,-1.9637,-1.9691,-1.9685,-1.9683,-1.9687,-1.9717,-1.9717,-1.9716,-1.9721,-1.9721,-1.9721,0,0,-1.8935,-1.8984,-1.9021,-1.9068,-1.914,-1.9187,-1.9195,-1.9276,-1.9307,-1.9365,-1.9411,-1.9454,-1.9543,-1.959,-1.9626,-1.9639,-1.9671,-1.9655,-1.964,-1.9667,-1.9667,-1.9667,-1.9672,-1.9674,-1.9657,-1.9657,-1.9657,0,-1.8906,-1.8977,-1.9036,-1.9081,-1.9118,-1.9174,-1.9212,-1.9255,-1.934,-1.9365,-1.9375,-1.9488,-1.9539,-1.9603,-1.9606,-1.9633,-1.9646,-1.9645,-1.9662,-1.9663,-1.9664,-1.967,-1.9672,-1.9654,-1.9655,-1.9655,-1.9655,0,-1.8938,-1.8986,-1.9007,-1.9088,-1.9128,-1.9169,-1.9235,-1.9268,-1.9303,-1.9349,-1.9407,-1.947,-1.9537,-1.9555,-1.9589,-1.9625,-1.9629,-1.9649,-1.9666,-1.966,-1.9667,-1.9669,-1.9651,-1.9652,-1.9652,-1.9653,0,0,-1.8894,-1.9008,-1.9015,-1.9053,-1.9137,-1.9176,-1.922,-1.9285,-1.9313,-1.937,-1.9409,-1.9484,-1.9505,-1.9545,-1.9586,-1.961,-1.9617,-1.9628,-1.9631,-1.9624,-1.9661,-1.9645,-1.9646,-1.9639,-1.964,-1.9641,-1.9656,0,-1.89,-1.8981,-1.9036,-1.9096,-1.9142,-1.9197,-1.9236,-1.9291,-1.9336,-1.9382,-1.9431,-1.9483,-1.9506,-1.9531,-1.9557,-1.9611,-1.9626,-1.961,-1.9677,-1.9679,-1.9658,-1.965,-1.9633,-1.9644,-1.9659,-1.9659,-1.9659,0,-1.8917,-1.8973,-1.9037,-1.9117,-1.9139,-1.9172,-1.9238,-1.9281,-1.9346,-1.9377,-1.9422,-1.9464,-1.9514,-1.9526,-1.9597,-1.9585,-1.9616,-1.9646,-1.9648,-1.9656,-1.9668,-1.9658,-1.9649,-1.965,-1.9664,-1.9664,-1.9663,0,-1.8879,-1.8971,-1.9022,-1.9052,-1.9147,-1.9169,-1.921,-1.9275,-1.9311,-1.9368,-1.9393,-1.9455,-1.9489,-1.9537,-1.9595,-1.9598,-1.9659,-1.9676,-1.9687,-1.9685,-1.9697,-1.9695,-1.9692,-1.9716,-1.9716,-1.9716,-1.9716,0,-1.888,-1.8917,-1.9006,-1.9037,-1.9081,-1.9144,-1.9186,-1.9231,-1.9289,-1.9331,-1.9382,-1.942,-1.9494,-1.9541,-1.9587,-1.9638,-1.9653,-1.968,-1.9692,-1.9676,-1.9672,-1.9697,-1.9697,-1.9717,-1.9717,-1.9716,-1.9716,0,-1.8844,-1.8905,-1.8964,-1.9049,-1.9072,-1.91,-1.9173,-1.9206,-1.9254,-1.9306,-1.9322,-1.9397,-1.9455,-1.9518,-1.9597,-1.9628,-1.9678,-1.9694,-1.9655,-1.9662,-1.9669,-1.9668,-1.9682,-1.9687,-1.9707,-1.9706,-1.9706,0,-1.884,-1.887,-1.8959,-1.899,-1.903,-1.9079,-1.9117,-1.9181,-1.9218,-1.9296,-1.9319,-1.9382,-1.9435,-1.9526,-1.9588,-1.965,-1.9668,-1.9669,-1.9678,-1.9661,-1.9669,-1.9666,-1.967,-1.9666,-1.9665,-1.9665,-1.9664,0,-1.8827,-1.8856,-1.8908,-1.8971,-1.9014,-1.9067,-1.9122,-1.9145,-1.922,-1.9259,-1.932,-1.9361,-1.9443,-1.9505,-1.9574,-1.9617,-1.9653,-1.9661,-1.9667,-1.9651,-1.9627,-1.9641,-1.9648,-1.9661,-1.9661,-1.9661,-1.9661,-1.9662,-1.8808,-1.8837,-1.8904,-1.8961,-1.9009,-1.9059,-1.9095,-1.9147,-1.9198,-1.927,-1.9305,-1.9366,-1.9432,-1.9529,-1.9571,-1.962,-1.9631,-1.9639,-1.9641,-1.9642,-1.9638,-1.9619,-1.9633,-1.9633,-1.9633,-1.9633,-1.9634,0,-1.8797,-1.8843,-1.8894,-1.897,-1.9014,-1.9045,-1.9108,-1.9144,-1.9196,-1.9255,-1.9306,-1.9377,-1.9437,-1.9505,-1.957,-1.9596,-1.9615,-1.9611,-1.9609,-1.9619,-1.9624,-1.9613,-1.9595,-1.9595,-1.9595,-1.9595,-1.9595,-1.9595,-1.8796,-1.8848,-1.8886,-1.8963,-1.9009,-1.9069,-1.9102,-1.9149,-1.9196,-1.9272,-1.9323,-1.9367,-1.9429,-1.95,-1.9557,-1.9575,-1.9597,-1.9588,-1.9612,-1.9615,-1.9618,-1.9621,-1.9611,-1.9593,-1.9593,-1.9602,-1.9602,-1.9602]}]]